FREGAT R/B, 44851

Orbit data source: Space-Track

FREGAT R/B, 44851 is space debris in MEO originally from a launch on Wed, 11 Dec 2019 UTC launched from the Plesetsk Missile And Space Complex (PKMTR). Debris objects in space refer to the collection of defunct objects orbiting the Earth. Examples of debris include non-operational satellites, rocket bodies, and fragments generated from explosions, collisions, or faulty payload assembly.

Loading next visibility...
Identifier
44851, 2019-088B
Orbit
MEO
Last TLE update
1 day ago
Origin
Manufacturer
Lavochkin
Mission
Spacecraft
Bus & Motor
FREGAT, Unknown motor
Mass
1,000 kg wet, 1,000 kg dry
Launch date (UTC)
2019-12-11 (5 years ago)
Launch vehicle
Unknown
Launch site
Plesetsk Missile And Space Complex (PKMTR)
Object type
Payload
Rocket body
Debris
Shape & HBR
Irr, 3.48 m
Radar Cross Section
12.110 m², Large (>1 m²)

Expand to show TLE details & history

TLE from 1 day ago
0 FREGAT R/B
1 44851U 19088B   25127.97870863  .00000017  00000-0  00000-0 0  9991
2 44851  65.2995  89.8496 0105576 101.2786 259.8837  2.09212869 41346
Epoch: 2025-05-07T23:29Z
Definitive object data (Epoch: 2025-05-07T23:29:20.425Z)
Latitude
Longitude
-128.55598°
Altitude
19,496.195 km
Speed
3.921 km/s
True Right ascension
05h 59m 20s
True Declination
0° 00' 00"
Sunlit
Object was in daylight at TLE epoch
Visualization TLE readout
Latitude
-56.62562°
Longitude
95.61408°
Altitude
19,689.648 km
Speed
3.894 km/s
Apparent Right ascension
22h 07m 24s
Apparent Declination
-58° 30' 23"
Sunlit
Object is in daylight
Visualization observer readout
Local Sidereal Time
14:22:49
Azimuth
137.193° SSE
Elevation
-46.361°
Doppler factor
1
Orbital elements
Apogee altitude
19,717.271 km
Perigee altitude
19,172.018 km
Semi-major axis
25,822.781 km
Eccentricity
0.0105576
Inclination
65.2995°
RAAN
89.8496°
Arg. of periapsis
101.2786°
True anomaly
258.69554°
Mean anomaly
259.8837°
Eccentric anomaly
259.28933°
Mean motion
0.52304 °/min
BSTAR
Unknown
Orbital period
688.28 mins
Loading maneuver chart data...
Loading SW <> Apogee altitude chart data...
Loading historical data...
Loading historical data...
Loading historical data...
Loading historical data...
Loading historical data...
Loading historical data...
Loading historical data...
Other satellites on launch #88 in the year 2019 (2019-12-11 UTC)

FREGAT R/B Visibility forecast

Observer location: undefined°, undefined°

Span
Click to sort rows by Start time (UTC) header in descending order
Start Az.
Max El. time (UTC)
Max El. Az.
Max El.
End time (UTC)
End Az.
78 mins2025-05-09 12:59:01.414Z335.332° NNW2025-05-09 13:38:01.414Z316.918° NNW13.882°2025-05-09 14:17:01.414Z297.742° NW
290 mins2025-05-09 20:29:01.414Z172.675° S2025-05-09 22:46:01.414Z96.618° ESE44.751°2025-05-10 01:19:01.414Z47.234° ENE
|